GFSNGP_250_rhum_021.txt.gz
RH
65 57 51 52 59 62 58 59 49 46 47 46 52 60 54 51 49 53 56 60 70 71 72 72 70 66 65 65 64 66 67 64 62 70 71 67 55 42 25 18 13 10 8 7
58 55 52 55 54 54 59 52 43 46 55 61 61 68 61 62 66 65 65 73 71 68 65 58 56 57 61 64 67 64 68 73 84 78 68 55 41 28 20 14 11 9 8 6
60 52 61 78 57 62 54 50 44 48 57 63 66 70 77 80 76 70 69 69 64 60 57 57 59 64 68 67 67 69 76 80 85 69 62 46 33 22 17 10 9 8 7 5
61 63 81 93 81 57 64 63 54 50 58 64 65 71 89 97 89 78 68 63 64 62 64 64 68 68 70 71 75 75 80 84 68 62 48 37 24 18 10 9 8 7 5 5
74 94 72 80 78 72 50 65 46 58 70 97 82 73 84 83 71 62 70 72 66 65 67 76 74 76 83 83 94 100 91 72 59 53 41 28 21 12 10 9 7 6 5 5
68 54 68 100 89 60 56 74 80 74 94 100 86 75 85 79 69 72 73 66 69 76 81 82 87 92 91 98 100 93 70 60 51 37 29 20 13 10 9 7 6 5 5 5
82 100 100 100 96 81 85 88 90 95 100 100 99 88 87 67 66 66 61 73 86 90 92 95 93 98 96 100 90 76 63 48 31 30 22 14 10 9 8 7 6 6 5 5
100 100 99 98 73 86 99 93 87 95 99 100 90 79 67 68 77 70 87 100 99 97 92 95 96 95 100 94 78 71 57 40 32 22 15 10 9 8 7 6 6 5 5 6
100 100 100 84 77 97 98 91 93 99 100 93 89 82 81 100 93 97 98 94 91 92 99 92 94 95 82 71 69 61 48 38 22 16 11 9 8 7 6 6 5 5 6 7
87 98 85 85 100 96 84 91 96 100 99 97 89 84 93 85 83 86 90 86 95 97 95 96 92 82 75 70 60 51 38 22 16 11 9 8 7 6 6 5 5 5 7 7
95 100 87 97 89 86 92 89 97 100 93 78 80 82 80 77 85 91 87 94 93 99 98 96 83 74 68 64 52 41 25 16 12 10 9 6 6 6 5 5 5 6 7 6
79 79 79 89 90 90 95 93 82 64 66 73 76 80 77 89 94 91 91 94 98 100 93 85 73 70 55 44 38 22 16 13 10 8 7 5 5 5 5 5 5 7 7 6
76 83 85 83 80 83 83 69 65 71 78 74 77 94 96 86 85 88 88 93 99 90 84 70 72 59 38 31 18 16 13 10 8 6 6 5 5 4 4 5 7 7 7 5
93 84 85 86 85 84 81 72 76 78 80 88 91 78 73 81 85 83 86 87 82 79 69 75 61 32 23 18 16 13 11 8 6 5 5 5 4 5 5 6 7 7 6 5
94 95 92 94 93 89 81 73 74 88 87 75 73 78 80 81 86 86 81 74 70 69 67 50 27 19 18 15 13 12 8 6 5 5 4 4 5 5 5 6 7 6 5 6
92 95 95 95 84 76 82 92 83 74 77 78 76 72 77 83 81 79 72 66 59 55 61 36 19 17 13 12 12 8 5 5 5 4 5 5 6 6 6 7 6 5 5 7
96 100 100 96 92 79 76 82 77 66 74 81 81 84 88 78 70 62 52 46 39 43 37 22 16 12 12 12 8 5 5 5 4 5 6 6 6 6 7 7 6 5 7 7
81 80 79 79 78 77 72 77 84 84 88 87 82 76 70 68 54 48 44 41 28 24 17 14 11 11 10 7 5 5 5 4 5 6 6 6 6 6 6 6 5 6 8 7
89 84 79 78 84 81 79 80 85 83 72 67 65 63 48 46 51 42 34 24 19 16 12 10 11 10 7 5 5 5 4 5 6 6 7 6 6 6 6 6 6 7 8 8
78 80 85 85 80 80 88 82 68 64 53 45 44 47 59 45 25 20 18 18 12 10 10 10 10 7 5 5 5 4 5 6 6 6 7 6 6 6 6 5 6 8 8 8
77 78 80 81 83 74 67 65 58 56 39 26 27 26 23 20 17 16 14 11 10 9 9 9 7 5 5 5 4 4 6 7 6 6 6 6 6 5 5 6 8 8 8 8
75 67 65 63 61 53 52 52 51 36 27 24 22 17 15 15 12 11 9 8 9 9 8 6 4 4 5 5 4 6 7 7 6 6 5 5 5 5 6 7 9 9 8 7
54 48 48 47 45 45 29 22 22 23 17 15 14 13 11 9 10 9 9 9 9 8 6 5 4 5 5 4 5 6 7 6 6 6 5 5 5 5 6 8 9 9 8 6
31 23 23 26 24 22 19 15 14 13 12 11 10 8 7 8 8 7 7 7 7 6 5 4 5 5 4 5 6 6 6 6 5 5 4 5 5 6 7 9 8 7 6 5
22 17 16 18 19 16 12 12 11 10 10 9 7 6 6 6 6 6 6 6 5 5 4 5 5 4 5 6 6 5 5 5 4 4 4 4 5 6 8 8 8 6 5 4
13 12 12 12 12 12 11 10 9 8 7 6 7 6 6 5 6 6 5 4 4 4 5 5 5 5 6 5 4 4 4 4 4 4 4 4 6 7 7 7 6 5 4 4
10 11 11 10 9 8 7 6 6 6 6 5 5 5 5 5 4 4 4 4 4 4 4 5 5 5 5 4 4 4 4 4 4 4 4 5 6 6 6 6 5 4 4 4

GFSNGP_250_rhum_024.txt.gz
RH
76 77 72 68 67 64 61 56 57 52 50 43 43 46 59 57 56 64 68 67 71 72 75 71 68 67 63 59 52 54 58 63 64 78 82 86 85 88 71 52 38 27 15 11
86 76 75 82 72 65 65 64 62 55 66 57 46 61 70 72 60 65 66 69 70 78 62 55 58 58 61 60 62 63 76 76 79 95 90 94 87 82 59 36 23 16 11 10
89 68 66 87 60 64 64 64 57 70 58 58 55 84 95 86 76 74 74 72 76 74 63 62 59 63 61 70 82 79 83 86 96 94 100 90 79 60 37 20 16 11 10 8
74 69 64 80 83 74 56 72 80 66 54 49 64 100 100 81 82 77 90 86 89 78 71 63 59 64 75 89 87 86 94 98 98 100 96 85 67 36 20 16 12 10 9 7
70 79 68 96 100 91 88 98 97 53 61 52 85 100 94 88 90 93 91 93 87 72 60 59 70 81 92 93 94 88 100 100 100 97 88 68 44 23 17 12 11 10 7 6
71 65 75 100 100 100 90 92 80 84 59 84 100 100 100 84 83 84 88 80 71 69 73 77 84 92 98 93 89 100 100 96 100 94 66 43 23 16 13 11 11 8 6 6
70 57 66 100 100 100 97 73 75 77 87 100 100 100 96 83 87 85 77 73 74 76 76 90 96 96 90 91 99 100 99 96 85 76 51 25 17 14 11 11 9 7 6 6
51 56 70 100 99 89 68 78 90 88 97 100 99 96 93 94 90 81 77 74 84 90 90 92 91 87 88 98 100 93 94 74 63 54 31 22 14 10 10 9 7 6 5 5
96 97 94 100 100 88 89 82 97 100 99 100 98 93 93 86 87 78 79 81 77 78 91 82 79 86 100 100 100 88 69 44 36 27 21 16 10 10 10 7 6 5 5 5
100 100 100 100 98 81 77 88 92 90 91 92 89 86 95 92 87 80 72 71 79 90 82 81 94 100 100 98 87 65 52 33 22 20 15 11 10 9 7 6 5 4 5 5
98 100 92 92 84 70 81 92 86 76 73 79 94 97 85 79 68 71 76 86 89 83 83 92 100 100 94 86 65 49 34 24 17 15 12 10 10 7 6 5 5 5 6 6
76 76 66 72 78 88 96 92 84 91 98 99 86 77 70 61 69 84 90 88 82 85 95 98 94 85 79 63 44 30 23 17 16 13 10 10 9 6 6 5 6 6 6 6
64 65 68 74 72 84 90 98 94 87 78 73 70 65 72 87 93 90 79 87 96 97 90 80 60 51 45 35 30 19 17 16 13 10 11 10 6 6 5 6 6 6 6 7
66 64 74 82 95 96 88 86 81 70 71 70 73 84 94 94 87 83 93 96 95 78 73 41 30 26 26 24 19 18 16 13 11 11 10 6 6 5 5 6 7 6 7 6
80 78 82 90 93 88 77 66 68 70 70 74 84 98 86 79 86 94 93 91 80 79 58 52 35 28 21 18 18 16 13 10 10 10 7 6 5 5 6 6 7 7 7 7
98 97 93 86 70 64 68 71 78 74 77 78 78 80 91 96 97 98 88 79 70 66 46 54 40 28 19 17 15 13 10 10 10 8 6 6 4 6 6 6 7 7 6 6
77 74 70 69 70 71 74 74 72 74 84 89 90 98 92 98 95 70 74 64 53 43 39 32 30 19 17 14 12 10 10 10 8 6 6 5 5 6 6 6 6 6 6 6
62 64 69 71 73 73 75 80 93 98 99 100 100 95 86 73 73 63 56 50 44 35 22 18 17 15 13 11 9 8 9 9 6 5 5 4 6 6 6 6 6 6 6 6
71 72 74 80 83 88 93 97 96 93 88 86 84 80 75 58 47 46 44 51 43 25 18 16 14 12 10 9 8 8 8 6 5 5 5 6 6 6 6 6 6 5 5 6
86 95 97 99 100 100 100 98 95 95 78 75 71 54 56 52 41 31 30 36 31 15 14 13 9 8 8 8 7 8 6 5 5 4 5 6 6 6 6 6 6 5 6 7
96 100 94 87 89 85 90 90 76 64 53 55 70 64 51 41 27 17 15 14 13 11 9 7 7 7 7 7 7 6 5 5 5 5 6 6 5 6 6 6 5 5 6 8
79 89 95 95 85 70 65 64 51 45 47 43 29 21 16 14 12 10 9 7 7 7 6 6 6 7 7 7 5 4 5 5 5 6 5 4 4 5 5 5 5 5 6 8
71 60 50 46 41 39 36 38 37 22 16 14 12 10 9 8 7 6 6 7 7 6 6 6 7 7 5 4 4 4 4 5 6 5 4 4 4 5 5 5 5 6 7 8
40 35 31 26 17 17 17 14 12 11 10 9 7 6 5 5 6 6 5 5 5 5 6 6 6 4 4 4 4 4 5 5 5 4 4 4 4 5 5 5 5 6 6 7
21 18 16 12 10 10 10 10 10 9 8 7 6 6 5 5 4 5 5 5 5 5 5 4 4 4 4 4 4 5 5 4 4 4 4 4 4 4 4 5 5 6 6 6
13 12 11 10 10 10 10 10 9 7 6 6 7 6 6 5 4 4 5 5 4 4 4 4 4 4 4 4 4 4 4 4 4 4 4 4 4 5 5 5 6 6 5 4
10 10 9 8 8 8 7 5 5 6 6 5 5 4 4 4 5 4 4 3 3 3 3 4 4 4 4 4 3 3 3 4 4 5 4 4 4 5 6 6 5 5 4 3

GFSNGP_250_rhum_027.txt.gz
RH
64 72 78 80 75 72 74 71 62 56 64 56 56 64 65 54 52 46 56 76 78 82 88 84 75 73 66 69 67 58 53 52 62 72 81 88 78 86 99 91 60 53 33 25
77 84 90 91 87 76 83 71 64 66 73 59 78 78 58 59 56 60 73 70 87 83 87 81 84 77 74 70 64 58 54 61 75 81 88 92 92 99 94 70 62 40 21 17
97 96 100 100 86 83 72 70 64 76 75 82 94 82 72 63 60 76 69 92 94 94 89 86 84 77 77 70 60 56 59 76 86 95 99 98 100 97 88 55 36 22 16 11
100 85 90 98 99 90 68 64 62 70 82 100 94 83 72 66 78 76 85 91 99 98 92 97 88 81 69 55 58 67 83 95 100 100 100 100 91 87 60 32 18 15 11 10
80 74 73 97 100 94 66 61 65 79 100 90 74 66 66 71 91 91 84 92 97 96 98 92 88 77 60 66 76 93 100 100 100 100 94 64 55 48 30 17 14 12 10 10
79 67 76 100 100 83 68 77 94 100 100 79 76 63 70 82 86 82 82 80 87 100 95 88 79 67 80 91 100 100 100 100 100 97 61 34 26 21 17 14 12 10 10 8
70 67 81 93 80 77 82 85 100 100 100 91 75 70 68 70 79 84 84 95 100 94 90 81 75 88 95 99 98 99 100 100 99 86 55 31 27 18 15 13 11 10 10 7
77 86 85 77 72 76 85 94 90 82 78 76 79 71 62 72 90 93 93 100 91 85 81 76 87 94 98 100 100 100 96 90 88 56 32 25 25 15 13 11 10 10 8 6
89 89 68 63 73 91 94 84 75 75 77 78 66 62 66 87 100 95 99 95 82 80 83 94 96 100 95 100 100 98 86 85 46 26 20 18 16 13 12 10 10 9 7 6
78 84 85 100 100 92 78 84 85 79 70 63 61 69 79 90 98 99 86 76 75 79 86 91 92 93 100 100 94 75 74 50 35 23 19 15 14 13 11 10 10 7 7 5
100 100 100 99 94 81 77 81 76 67 65 63 63 70 76 86 86 76 73 75 80 86 97 98 97 100 97 88 74 66 48 32 35 27 17 16 14 12 10 10 9 7 6 6
100 97 84 76 74 81 81 72 65 58 57 62 70 77 80 76 65 70 76 83 97 96 100 94 97 96 86 73 60 49 34 30 31 31 17 14 12 10 10 10 7 6 6 7
63 63 68 70 76 74 64 58 57 59 67 72 76 73 64 66 72 82 85 98 95 97 95 99 89 78 63 58 44 33 29 21 21 21 15 12 10 10 10 8 6 6 6 7
64 64 67 67 68 65 57 53 58 67 75 72 67 67 73 74 85 91 100 100 100 100 99 87 68 62 48 30 35 31 23 17 15 14 12 9 9 9 9 6 6 6 8 7
76 72 71 71 56 52 60 68 68 63 62 64 70 84 88 91 99 100 100 100 98 92 86 88 60 43 40 34 24 17 15 14 13 11 9 8 8 9 7 6 6 6 8 7
90 80 61 59 65 74 74 72 70 73 75 84 95 94 92 90 93 91 91 98 95 95 86 69 66 54 29 19 16 15 14 12 10 9 8 7 8 7 6 6 6 8 8 7
72 75 77 85 82 78 74 74 79 88 88 86 89 92 92 93 87 95 94 82 76 69 62 62 56 26 20 16 14 13 12 10 9 8 7 7 7 5 6 6 7 7 7 7
78 81 78 74 69 70 73 83 90 95 100 98 89 88 89 95 98 83 75 64 49 44 34 39 41 17 14 13 12 10 9 8 7 7 8 6 5 6 6 6 6 6 6 7
83 77 73 72 77 88 95 92 92 96 99 100 97 98 89 64 61 57 52 54 32 20 21 19 15 13 11 10 8 7 7 6 6 7 6 5 5 6 6 6 6 5 5 6
79 84 88 96 100 100 100 96 96 92 92 82 69 61 46 41 38 44 44 45 17 15 14 12 10 8 8 7 6 6 6 6 7 6 5 5 6 6 6 5 5 5 5 5
87 89 93 89 87 82 84 91 84 78 70 59 43 42 43 32 18 17 15 13 11 9 8 7 7 6 7 6 5 5 6 6 5 4 5 6 6 6 5 5 5 5 5 5
80 76 70 73 87 81 84 72 59 46 38 36 37 27 17 15 12 10 8 7 7 7 6 6 6 6 6 5 5 5 4 4 4 5 5 6 6 5 5 5 5 5 5 5
80 82 76 80 79 62 49 35 34 26 16 14 12 11 8 6 5 5 7 7 6 6 6 6 6 6 6 5 4 4 4 4 5 5 6 5 4 5 6 6 6 5 5 6
63 59 60 53 40 33 30 16 12 11 10 9 8 6 4 5 6 5 5 5 5 5 5 5 5 4 4 4 3 4 4 4 5 5 4 4 4 5 6 6 6 5 5 6
43 34 31 26 22 14 12 11 10 8 8 7 5 5 6 5 5 5 5 5 5 5 4 4 4 4 4 4 4 4 4 4 4 3 4 4 5 6 6 6 6 6 5 5
31 19 14 12 11 10 8 7 7 6 5 5 7 7 6 5 5 4 4 4 3 3 3 3 3 4 4 4 4 3 3 3 3 4 4 5 6 6 6 6 6 5 5 4
13 11 10 8 7 6 6 5 4 5 6 5 5 5 5 5 4 4 3 3 3 3 3 3 4 3 3 3 3 3 3 4 4 4 4 5 5 5 5 5 4 4 4 4

GFSNGP_250_rhum_033.txt.gz
RH
40 64 64 53 54 61 65 65 72 64 67 56 69 83 86 86 76 71 70 67 75 91 72 62 53 55 67 62 64 70 90 96 92 85 84 80 83 79 77 70 78 87 83 74
70 60 56 65 69 70 68 70 71 72 77 52 74 73 84 74 78 79 70 75 100 97 81 73 60 69 65 64 72 91 92 84 81 83 79 84 87 78 75 84 86 84 74 56
59 66 73 77 78 70 74 80 75 80 97 88 90 78 74 72 71 76 70 74 86 86 82 69 66 59 59 67 82 84 76 81 81 84 91 89 77 78 84 90 89 74 54 38
65 72 81 83 73 75 77 80 72 85 84 79 80 74 69 68 80 67 68 63 64 62 61 59 53 57 70 76 76 80 81 79 84 83 82 80 88 94 99 89 73 50 41 30
75 76 84 84 83 81 85 79 64 82 75 71 62 62 66 73 74 64 53 51 59 59 56 56 60 73 77 76 83 83 84 80 78 82 82 80 92 100 81 63 44 49 46 28
88 82 84 89 84 87 83 68 88 81 64 61 63 67 66 66 75 70 68 64 56 59 55 61 71 75 80 87 79 77 82 91 88 77 86 100 85 62 55 55 54 38 24 16
86 83 87 91 84 83 87 95 76 70 68 71 74 78 98 99 87 77 68 62 57 53 60 67 68 74 86 82 82 81 80 83 90 97 85 75 70 52 53 55 42 36 27 16
87 84 82 82 80 94 82 73 68 70 71 78 77 96 100 92 70 67 60 52 55 62 69 68 72 84 81 76 77 82 80 89 89 95 95 72 57 57 46 38 28 22 18 15
81 74 66 62 65 60 68 80 87 86 83 78 100 98 81 61 55 48 48 52 62 65 65 77 85 84 82 78 74 80 90 90 90 76 63 66 56 39 32 24 17 15 13 11
74 72 56 56 57 74 82 80 81 78 77 88 83 70 56 52 48 50 59 66 65 72 83 83 85 82 73 76 81 86 90 82 66 58 55 37 20 22 23 18 15 14 12 10
66 71 79 81 85 86 68 66 69 75 74 77 62 58 59 54 60 72 71 72 78 79 84 88 83 77 82 87 82 75 74 62 49 35 35 40 33 16 14 13 11 10 9 9
89 100 94 83 74 73 77 85 86 75 72 64 56 57 67 74 74 74 75 84 84 82 83 77 75 76 78 74 66 64 48 40 38 44 41 40 25 18 12 11 9 9 9 9
94 78 75 77 84 92 100 92 87 81 62 57 67 72 76 79 79 80 88 84 81 80 78 70 73 71 79 69 50 36 34 34 27 21 17 14 12 11 9 9 10 10 9 8
87 86 83 89 86 90 74 64 60 61 65 70 75 80 77 68 76 81 78 80 76 67 68 72 69 66 59 55 56 45 34 25 20 13 11 10 9 10 11 10 9 8 8 8
96 95 94 97 92 66 57 61 68 72 75 74 68 69 77 81 84 84 75 68 69 72 60 64 70 64 60 39 29 21 18 14 11 10 9 9 9 10 9 8 8 8 8 7
82 86 88 79 66 64 69 79 82 78 68 68 79 86 92 93 77 71 75 74 68 67 68 61 56 39 25 21 14 13 12 11 9 8 9 8 8 8 7 8 8 7 5 5
88 83 78 75 77 85 86 78 70 66 84 86 79 81 81 69 68 76 83 78 70 59 52 40 25 21 19 14 11 10 9 8 8 8 8 7 7 7 7 6 5 5 5 5
82 78 80 85 85 79 69 72 90 91 85 83 84 71 66 79 90 84 79 74 57 33 22 17 16 14 11 9 9 8 9 8 7 6 6 6 7 6 5 5 5 5 6 6
84 87 89 82 73 79 89 92 91 90 85 74 64 70 78 79 67 57 44 32 24 18 14 12 10 9 9 8 8 8 7 6 6 6 6 5 4 4 5 5 5 6 6 6
93 85 81 85 88 91 96 94 84 75 69 67 74 71 60 52 48 36 23 19 14 10 10 9 8 8 8 7 6 6 5 5 5 4 4 4 4 5 5 5 5 5 5 4
86 86 93 100 100 92 81 74 76 75 67 60 53 52 44 37 32 20 14 12 11 10 8 7 7 6 6 6 6 5 4 4 4 4 4 5 5 5 5 4 4 4 4 5
100 100 96 86 78 71 71 69 64 56 52 51 47 34 32 28 20 14 12 9 8 7 6 6 6 6 5 4 4 4 4 4 5 5 4 4 4 4 4 4 5 5 5 5
91 85 77 70 66 61 61 55 52 49 41 34 34 29 24 13 10 10 8 8 6 6 6 6 5 4 4 4 4 4 4 5 4 4 3 3 4 4 5 5 5 5 5 5
74 71 68 60 62 56 49 50 45 35 32 30 23 16 11 9 8 7 7 6 5 5 4 3 3 3 3 4 4 4 4 4 3 3 4 4 4 4 4 4 4 4 4 4
64 64 63 59 58 47 41 40 30 31 26 18 13 9 8 7 7 6 6 5 4 4 3 3 3 3 4 4 3 3 3 3 4 4 4 4 4 4 3 3 3 3 3 3
59 54 53 48 39 36 35 30 28 19 14 12 9 7 7 7 6 5 4 4 3 3 3 4 4 3 3 3 3 3 3 4 4 3 3 3 2 2 2 2 2 2 2 3
51 42 38 33 36 31 27 20 14 11 9 7 6 7 6 6 4 4 3 3 3 4 4 3 3 3 2 2 3 3 3 3 2 2 2 2 2 2 2 2 2 2 2 2

GFSNGP_250_rhum_036.txt.gz
RH
31 28 26 27 32 37 62 59 58 50 57 56 55 68 69 71 72 81 72 56 70 68 62 56 59 56 56 60 64 62 58 56 67 73 67 74 80 73 73 82 80 77 77 88
41 37 40 38 45 62 59 49 58 63 64 57 66 74 71 84 80 73 73 71 70 84 78 69 58 54 55 54 57 53 56 60 71 64 70 76 77 82 79 70 73 86 81 78
36 34 37 64 58 55 53 61 66 69 74 77 69 74 100 68 52 66 72 67 68 77 80 69 54 51 59 51 48 53 60 69 68 72 80 89 88 78 69 79 74 73 69 56
34 37 74 61 55 60 66 64 64 79 90 93 81 86 70 58 66 68 64 75 73 69 65 65 69 58 52 46 52 61 70 70 78 84 89 91 83 76 76 68 77 66 56 58
49 68 64 58 65 63 70 60 75 90 84 78 70 75 56 62 65 66 66 63 66 88 87 70 50 48 48 56 66 71 71 83 87 90 91 85 79 66 65 74 68 55 44 34
66 64 61 62 67 65 68 57 77 77 78 80 77 61 61 60 56 61 69 70 97 82 65 52 50 52 60 74 73 74 85 87 85 82 75 61 57 78 78 69 56 48 47 36
70 68 72 76 76 82 77 77 76 89 90 81 81 69 66 75 71 74 75 75 86 77 66 62 69 79 82 82 86 93 93 89 86 68 68 80 77 71 69 58 46 38 39 27
82 82 86 90 89 92 85 92 93 85 83 72 74 91 81 79 98 91 70 72 77 72 66 68 82 79 78 83 92 90 85 77 70 72 72 77 70 60 44 31 30 23 18 22
94 84 83 90 92 84 99 92 82 76 72 82 100 96 96 93 86 73 66 71 71 63 65 74 79 80 82 82 81 81 73 68 67 70 68 66 60 53 44 34 22 17 12 10
97 78 75 86 70 82 84 72 78 95 100 100 95 86 79 73 71 77 80 73 68 72 75 77 74 74 83 85 80 71 65 64 69 68 62 55 46 36 25 24 22 17 11 10
95 83 82 65 71 78 65 88 100 96 89 81 82 95 83 71 77 71 66 76 75 75 73 72 77 77 78 74 67 64 69 70 64 51 36 32 25 21 19 16 11 9 8 8
62 90 85 59 59 78 100 100 97 74 75 82 96 93 79 79 69 67 75 80 78 66 69 73 74 79 69 66 69 64 61 46 32 29 27 23 18 15 12 10 10 9 9 8
88 76 63 68 100 98 92 74 71 80 90 100 94 89 89 77 73 84 82 71 62 67 67 75 72 62 59 61 56 52 45 26 30 23 15 12 10 9 10 11 9 9 8 7
73 64 78 89 96 84 74 82 82 85 93 90 89 89 78 78 82 72 59 66 70 76 78 73 64 56 57 60 52 39 27 22 16 13 11 10 9 10 9 8 8 8 7 7
96 93 87 84 82 82 80 84 99 100 93 87 78 76 84 81 70 68 69 72 78 78 68 62 64 63 59 46 30 22 19 16 13 11 9 10 9 8 7 6 6 7 6 5
97 91 84 82 84 86 93 99 88 76 74 74 83 84 79 73 72 67 78 81 72 63 62 64 65 53 34 25 18 16 12 9 8 8 8 8 7 7 7 6 5 4 4 5
83 86 89 91 91 99 99 86 78 77 83 83 77 76 68 67 75 86 75 69 64 65 63 56 33 24 17 14 11 9 8 8 7 6 6 6 6 5 5 4 4 4 5 6
82 87 89 96 100 92 81 79 84 83 75 74 74 72 74 86 86 73 70 69 62 57 41 23 16 13 14 11 9 8 7 7 7 6 5 5 4 4 4 4 5 6 6 6
88 89 98 92 81 80 87 86 79 81 82 82 82 84 86 82 70 69 66 60 44 33 23 16 15 12 11 9 7 7 7 6 5 4 4 4 4 4 5 5 5 5 5 5
88 90 85 84 90 89 87 92 93 80 88 89 87 86 75 69 70 63 53 37 26 21 13 12 10 10 8 7 7 6 5 4 4 4 4 4 5 5 5 4 4 4 4 5
92 89 90 95 94 95 94 84 88 88 87 87 78 73 69 62 56 49 34 30 21 16 14 10 9 8 7 7 6 4 4 4 4 4 5 5 4 4 4 4 4 4 5 5
96 96 95 96 93 83 83 82 88 88 80 72 70 62 53 51 42 29 22 19 15 12 9 8 8 7 6 4 4 4 4 4 4 4 4 4 4 4 3 4 4 4 4 4
95 89 83 82 84 89 94 89 82 73 67 60 53 51 42 36 31 21 19 15 11 9 8 7 6 5 4 4 4 4 4 4 4 3 3 4 4 4 4 4 4 4 3 3
88 84 84 90 89 86 81 70 58 62 55 49 44 36 30 27 23 18 14 10 8 7 6 5 4 4 4 4 4 4 3 3 3 3 3 4 4 4 3 3 2 2 2 2
90 89 81 68 64 60 56 55 50 50 46 40 30 26 25 19 16 11 9 8 7 5 4 4 3 3 4 4 3 3 3 3 3 3 3 3 2 2 2 2 2 2 3 3
63 61 60 58 54 51 50 47 42 37 31 25 22 19 16 13 10 8 7 5 4 4 3 3 3 4 3 3 3 2 3 3 3 3 2 2 2 2 2 2 2 2 2 2
52 49 48 49 49 45 39 32 28 24 20 18 14 13 11 9 8 6 4 4 3 3 3 4 3 3 3 2 2 3 3 3 2 2 2 2 2 2 2 2 2 2 2 2

GFSNGP_250_rhum_042.txt.gz
RH
74 50 52 54 76 71 66 55 33 27 40 38 42 34 35 63 52 42 47 51 47 52 54 64 71 67 59 50 50 51 55 54 61 68 63 56 60 64 72 77 69 67 77 78
62 60 61 52 61 39 34 38 44 40 36 32 30 53 73 56 47 56 57 68 79 81 71 62 57 52 44 51 53 56 56 64 67 69 68 64 67 77 73 62 70 76 71 62
45 40 38 34 35 35 31 30 30 30 29 34 37 52 58 59 65 65 66 64 56 56 51 57 65 68 68 65 57 57 63 74 72 74 78 73 77 75 62 62 68 66 65 58
36 37 33 34 35 37 36 42 51 59 51 46 54 54 53 60 67 76 83 83 76 73 83 94 74 60 67 65 71 78 80 75 76 81 78 80 80 69 72 77 66 63 64 64
36 35 39 50 38 43 36 39 46 54 63 71 60 57 59 65 71 76 77 74 78 87 87 73 72 72 75 79 75 75 79 82 83 78 84 86 71 77 76 74 79 69 66 56
40 38 42 59 59 35 38 51 72 68 77 71 69 74 76 78 81 86 83 80 79 81 78 79 73 72 82 78 79 86 87 89 83 84 92 77 80 81 84 80 70 69 58 39
40 34 45 58 48 46 45 89 89 83 77 70 71 71 78 91 89 81 77 82 88 86 90 91 84 86 80 71 83 91 85 78 83 85 83 84 79 86 82 73 62 53 42 33
41 35 47 58 60 68 80 86 83 86 84 80 85 95 95 93 93 95 100 100 92 91 94 85 85 84 74 83 85 80 78 84 82 75 84 85 92 83 66 60 51 38 29 21
40 35 47 67 78 78 70 71 84 99 100 100 100 99 96 95 94 94 96 94 89 92 92 94 84 78 85 82 79 81 81 87 78 86 90 90 84 65 57 47 32 28 19 14
42 41 47 63 77 88 83 78 84 89 99 100 97 96 98 100 96 90 92 90 97 96 95 86 84 91 83 82 78 82 91 81 83 91 95 89 66 56 48 38 28 20 13 11
47 46 51 55 65 73 84 90 93 97 96 93 95 86 80 85 94 99 90 90 94 95 88 86 88 83 83 79 86 93 80 81 92 97 84 60 55 44 33 28 19 13 10 8
56 64 70 70 65 62 71 82 90 92 94 93 88 92 99 99 95 88 84 88 93 89 85 82 82 84 80 84 91 83 89 95 93 76 58 56 42 29 26 19 14 10 8 6
69 58 62 74 74 73 80 91 95 98 100 100 97 94 88 86 81 78 84 90 88 83 82 86 81 79 82 89 83 89 95 81 72 61 56 47 37 24 17 14 11 8 6 4
85 66 65 66 70 73 75 76 74 72 71 73 77 76 79 78 77 84 89 89 86 86 84 79 81 88 88 83 86 89 79 70 56 50 39 25 19 14 10 8 6 6 6 4
98 84 72 71 75 84 85 85 81 76 80 87 87 86 85 88 90 95 94 86 79 75 79 91 93 84 79 83 81 72 63 54 45 37 28 18 14 10 7 5 5 5 5 5
99 98 87 79 76 78 82 83 83 87 88 89 90 84 81 86 92 85 71 70 79 80 90 88 79 75 76 73 68 62 55 46 36 25 16 12 10 7 5 4 4 4 5 5
92 96 94 87 77 75 72 75 82 80 79 79 81 84 84 83 74 74 85 82 81 86 82 77 75 75 73 64 56 45 39 31 22 16 12 9 6 4 4 4 4 5 5 4
95 89 86 88 88 85 83 80 78 78 84 92 93 92 82 77 82 84 83 84 81 79 75 74 72 70 58 51 38 31 26 21 15 11 8 6 4 4 4 4 4 4 4 3
92 88 86 91 99 96 88 85 90 97 98 94 82 79 83 83 83 87 83 77 75 68 73 71 69 56 47 35 31 25 17 14 10 8 5 4 4 4 4 4 4 3 3 3
83 90 94 92 94 98 100 100 96 89 79 78 82 85 86 87 87 79 77 71 73 74 73 74 55 42 32 28 22 15 12 9 7 5 4 4 4 4 4 3 3 3 3 3
85 86 94 98 96 93 89 85 83 86 85 83 83 86 93 84 82 77 72 74 68 69 58 45 35 29 24 18 14 11 8 6 4 4 4 4 4 3 3 3 3 3 3 3
90 81 76 78 83 90 94 88 82 80 84 92 92 85 89 88 77 72 65 64 62 49 35 31 26 18 16 12 10 8 5 4 4 4 4 4 3 3 3 3 3 3 3 2
92 94 99 100 95 88 83 79 80 86 83 84 90 88 76 68 62 56 62 54 36 26 24 21 18 15 12 9 7 5 4 4 4 4 3 3 3 3 3 3 3 2 2 2
95 92 85 80 79 78 77 84 84 90 97 89 74 69 64 57 56 50 38 27 24 22 18 16 12 10 7 6 4 3 3 4 4 3 3 3 3 3 3 2 2 2 2 2
96 93 91 89 85 87 93 97 97 87 74 68 57 51 55 50 37 28 23 19 17 15 13 10 8 7 5 3 3 3 4 4 3 3 2 3 3 3 2 2 2 2 2 2
94 97 97 96 93 92 84 74 68 63 52 45 46 42 35 28 21 18 16 15 13 11 9 7 5 4 3 3 4 4 4 3 3 2 3 3 3 2 2 2 2 2 2 2
75 74 73 71 68 65 58 51 47 46 43 37 31 27 20 17 14 12 11 10 8 7 5 4 3 3 3 4 4 3 3 2 2 2 2 2 2 2 2 2 2 1 1 2